Simultaneous Nadir Overpasses (SNOs) Predictions

Prediction of SNOs over PacNW region [( 10.00, 139.50) to ( 22.70, 165.60)] between NOAA-19 and NPP Satellites:

Table of predicted SNOs over PacNW region for the next 30.0 days since TLE Epoch: 6/14/2014
Index Date (NOAA-19) Time (NOAA-19) NOAA-19 Lat,Lon Date (NPP) Time (NPP) NPP Lat,Lon Distance(km) Time Diff (sec)
1 06/16/2014 03:07:52 22.03, 157.25 06/16/2014 03:08:03 20.89, 152.43 515.20 11
2 06/16/2014 15:44:01 10.02, 153.44 06/16/2014 15:40:25 10.14, 149.29 455.29 216
3 06/28/2014 15:08:27 22.60, 164.62 06/28/2014 15:11:19 23.92, 158.97 595.10 172
4 06/29/2014 04:06:59 22.69, 142.50 06/29/2014 04:05:36 21.76, 137.97 477.20 83
5 07/11/2014 16:07:21 22.64, 150.04 07/11/2014 16:08:36 23.88, 144.73 560.14 75
6 07/12/2014 03:23:48 22.65, 153.45 07/12/2014 03:21:22 21.77, 149.12 456.50 146




NCC Satellite Simultaneous Nadir Overpasses (SNOs) Prediction Service
